Timeline UpdatesTrip UpdatesNews PostsPvt PostsTravel TipsAdmin PostsConv PostsFollowed PostsChat RequestsBlog PostsPNR Posts

Disclaimer
Search
 
 
Fri Jul 25, 2014 07:04:59 ISTHomeTrainsΣChainsAtlasPNRForumGalleryNewsFAQTripsMembersLoginFeedback
No Recent News for this Train
Other Trains in the News **new
Latest...
Timings of Train No. 57562 Manmad-Kacheguda Passenger are revised with effect from 23rd September, 2013.
Sat Sep 21, 2013 (04:26PM)
⇐ Return Journey: Train# 57561

57562/Manmad - Kacheguda Passenger (UnReserved)

Oct 03 2013 (7:43PM)
Change Departure Station:
Change Arrival Station:
Post a Train Travel TipPost a Train Travel Tip **new
Post a Comment/Question/Picture/VideoPost a Comment/Question/Picture/Video
Pantry/Catering
✕ NO Pantry Car
✓ Catering Avbl
RSA - Rake Sharing
Rake/Coach Composition
LOCO-SLR-GEN-GEN-GEN-GEN-GEN-GEN-GEN-GEN-GEN-GEN-GEN-GEN-SLR.
Loco
MLY WDM 2/3A or WDG 3A.
News    PNR    Forum    Time-Table    Availability    Fare Chart    Map    Arr/Dep History    Trips    Gallery    ΣChains    X/O    Timeline    
Travel Time: 8h 29m    33 halts    Distance: 341 km    Avg Speed: 40 km/hr
Type: Passenger
Zone: SCR/South Central
Departs @ 05:20
Platform# ???
SMTWTFS
Manmad Junction/MMR 
Arrives @ 13:49
Platform# ???
SMTWTFS
Wanegaon/WNG 

33 halts. 34 intermediate Stations between Manmad Junction and Wanegaon

Show ALL intermediate Stations  Show Old Time-Table

#CodeStation NameX/OArrivesAvgDepartsAvgHaltPFDay#KmSpeedElevZoneAddress
1MMR»Manmad Junction (6)»  -05:20---10.055580mCRManmad 423104, Maharashtra
2ANKAnkai (3)  05:34-05:35-1m2112.960620mSCRDist. Nashik, Maharashtra
3NSLNagarsol (2)XO  05:45-06:30-45m--122.919589mSCRDist. Nashik, Maharashtra
4TRTarurX  06:49-06:50-1m--129.034586mSCRTaru, Maharashtra
5RGORotegaonX  07:29-07:30-1m--150.8106547mSCRAurangabad, Maharashtra
6PSDParsoda  07:37-07:38-1m--163.270530mSCRRotegaon, Maharashtra
7KAJGKaranjgaonX  07:42-07:43-1m--167.887523mSCRLasur, Maharashtra
8LSRLasur (2)  07:50-07:51-1m--178.0101536mSCRAurangabad, Maharashtra
9POZPotul (1)X  07:58-07:59-1m1189.8112554mSCRLasur, Maharashtra
10DLBDaulatabad (1)  08:04-08:05-1m1199.175575mSCRDaulatabad, Maharashtra
11AWBAurangabad (5)X  08:15-08:20-5m--1111.6100561mSCRAurangabad 431001, Maharashtra
12MKDDMukundwadi Halt (1)  08:26-08:27-1m11121.5-580mSCRAurangabad, Maharashtra
13CTHChikalthanX  08:30-08:31-1m--1135.830582mSCRAurangabad, Maharashtra
14KMVKarmadX  08:39-08:40-1m--1139.884567mSCRAurangabad, Maharashtra
15BDUBadnapur  08:51-08:52-1m--1155.254523mSCRJalna, Maharashtra
16JJalna (3)  09:13-09:15-2m--1174.265502mSCRJalna, Maharashtra
17SVDSarwari  09:24-09:25-1m--1183.966493mSCRRanjani, Maharashtra
18KODIKodi  09:34-09:35-1m--1193.975473mSCRRanjani, Maharashtra
19RNERanjani  09:44-09:45-1m--1205.142469mSCRJalna, Maharashtra
20PDGParadgaon  09:54-09:55-1m--1211.448454mSCRUsmanpur, Maharashtra
21PTUPartur (2)  10:04-10:05-1m--1218.663465mSCRJalna, Maharashtra
22UPRUsmanpurX  10:14-10:15-1m--1228.153444mSCRUsmanpur, Maharashtra
23SCOSatuna  10:24-10:25-1m--1236.032440mSCRSatona, Maharashtra
24SELUSelu (2)  10:44-10:45-1m--1246.264436mSCRParbhani, Maharashtra
25DGPPDhengli PimpalgaonX  10:54-10:55-1m--1255.723407mSCRSatuna, Maharashtra
26MVOManwath Road (2)  11:09-11:10-1m--1261.262421mSCRParbhani, Maharashtra
27DAVDevalgaon AvcharX  11:19-11:20-1m--1270.440425mSCRParbhani, Maharashtra
28PGPergaon  11:29-11:30-1m--1276.517441mSCRParbhani, Maharashtra
29PBNParbhani Junction (3)  12:13-12:15-2m21288.673414mSCRParbhani 431401, Maharashtra
30PIZPingli (1)  12:24-12:25-1m11299.636399mSCRParbhani, Maharashtra
31MQLMirkhal  12:34-12:35-1m--1304.918405mSCRPurna, Maharashtra
32PAUPurna Junction (4)X  13:15-13:20-5m--1317.066384mSCRPurna, Maharashtra
33CRUChudawa (1)O  13:29-13:30-1m11326.964392mSCRHingoli, Maharashtra
34LBGLimbgaon (2)X  13:39-13:40-1m--1336.531390mSCRHuzur Sahib Nanded, Maharashtra
35WNG•Wanegaon•O  13:49-13:50-1m--1341.213371mSCRChudawa, Maharashtra
36NEDHazur Sahib Nanded (4)  14:20-14:25-5m--1347.641366mSCRNanded, Maharashtra
37MTDIMaltekdiX  14:29-14:30-1m--1350.471362mSCRNanded, Maharashtra
38PARDPathrad  14:36-14:37-1m--1357.516363mSCRHuzur Sahib Nanded, Maharashtra
39MGCMugatX  14:49-14:50-1m--1360.842360mSCRHuzur Sahib Nanded, Maharashtra
40MUEMudkhed Junction (4)X  15:03-15:05-2m--1370.018378mSCRMudkhed, Maharashtra
41SVNSivungaon  15:29-15:30-1m--1377.267395mSCRHuzur Sahib Nanded, Maharashtra
42SLGHShelgaon Halt  15:34-15:35-1m--1381.694378mSCRMudkhed, Maharashtra
43UMRIUmri (1)  15:40-15:41-1m11389.5126381mSCRHuzur Sahib Nanded, Maharashtra
44BLSABolsa  15:45-15:46-1m--1397.9112361mSCRDharmabad, Maharashtra
45KEKKarkheli  15:50-15:51-1m--1405.361358mSCRBiloli, Maharashtra
46SQESamrla  15:58-15:59-1m--1412.449360mSCRDharmabad, Maharashtra
47DABDharmabad (2)  16:07-16:08-1m--1418.984354mSCRDegaon, Maharashtra
48BSXBasar (2)X  16:15-16:16-1m11428.858358mSCRDist Adilabad, Telangana
49FKBFakrabad (1)  16:23-16:24-1m11435.515348mSCRNizamabad Dist., Telangana
50NVTNavipet (2)  16:52-16:53-1m--1442.563374mSCRNizamabad Dist., Telangana
51JKMJankampet Junction (1)  17:02-17:03-1m11451.937391mSCRJankampet Junction nizamabad dist., Telangana
52NZBNizamabad (3)X  17:13-17:16-3m--1458.164384mSCRNizamabad, Telangana
53DHPDichpalliX  17:28-17:29-1m--1471.063424mSCRNizamabad Dist., Telangana
54IDLIndalvai (1)X  17:38-17:39-1m11480.468439mSCRNizamabad Dist., Telangana
55SCPSirnapalli  17:46-17:47-1m--1488.357456mSCRNizamabad Dist., Telangana
56UPWUppalavai  17:58-17:59-1m--1498.732529mSCRNizamabad Dist., Telangana
57KMCKamareddi (3)  18:20-18:22-2m11510.067528mSCRNizamabad Dist., Telangana
58TMDTalmadla  18:31-18:32-1m--1520.083559mSCRNizamabad Dist., Telangana
59THPRTippapur (1)  18:36-18:37-1m11525.541549mSCRNizamabad Dist., Telangana
60BKUBhiknur  18:43-18:44-1m--1529.641575mSCRNizamabad Dist., Telangana
61AKEAkanapet  18:53-18:54-1m--1535.772566mSCRNizamabad Dist, Telangana
62MZLMirzapalli (1)  19:03-19:04-1m11546.528530mSCRMedak Dist., Telangana
63WDRWadiaram (2)X  19:18-19:19-1m--1553.1-547mSCRMedak Dist., Telangana
64SHANSrinivasa Nagar  19:20-19:21-1m--1557.814522mSCRMedak Dist., Telangana
65MEMasaipet (2)  19:34-19:35-1m--1560.934520mSCRMedak Dist., Telangana
66BMPLBrahmanapalli (1)  19:40-19:41-1m11563.826528mSCRMedak Dist., Telangana
67PAPMPalata Potaram (1)X  19:45-19:46-1m11565.542522mSCRMedak Dist., Telangana
68MOBManoharabad (2)  20:04-20:05-1m--1578.0140593mSCRMedak Dist., Telangana
69DBVDabilpur (1)O  20:09-20:10-1m11587.36611mSCRRangareddy Dist., Telangana
70MEDMedchal (3)  20:48-20:49-1m11591.351602mSCRRangareddy Dist., Telangana
71GWVGowdavalli (1)X  20:53-20:54-1m11594.761601mSCRRangareddy Dist., Telangana
72GDPLGundla Pochampally (1)  20:59-21:00-1m--1599.823601mSCRRangareddy Dist., Telangana
73BMOBolarum (3)X  21:14-21:15-1m11605.119597mSCRSecunderabad, Telangana
74CVBCavalry Barracks (3)X  21:29-21:30-1m21609.626575mSCRSecunderabad, Telangana
75MJFMalkajgiri (3)  21:43-21:44-1m21615.331535mSCRSecunderabad, Telangana
76STPDSitafalmandi (4)  21:51-21:52-1m41618.98533mSCRSecunderabad, Telangana
77KCGHyderabad Kacheguda (5)  22:30----1624.0-494mSCRHyderabad - 500027, Telangana
Scroll to Top
Scroll to Bottom